FW6280 Weather Reports


Display with metric or nautical units.
time (UTC)temp
F
wind
direction
speed
MPH
gust
MPH
rain 1hr
in
rain 24hr
in
rain mn
in
humidity
%
barometer
mb
20260507193102 59 360 8.0 13.0 0.00 0.00 0.00 80 1019.1
20260507191527 59 360 8.0 14.0 0.00 0.00 0.00 80 1019.1
20260507190037 60 360 4.0 13.0 0.00 0.00 0.00 80 1019.0
20260507184602 59 360 4.0 13.0 0.00 0.00 0.00 81 1019.2
20260507183025 59 360 5.0 12.0 0.00 0.00 0.00 82 1019.2
20260507181552 58 360 5.0 12.0 0.00 0.00 0.00 83 1019.4
20260507180015 56 360 3.0 9.0 0.00 0.00 0.00 84 1019.5
20260507174604 55 61 0.0 9.0 0.00 0.00 0.00 85 1019.5
20260507173008 55 360 3.0 12.0 0.00 0.00 0.00 87 1019.6
20260507171542 54 360 4.0 8.0 0.00 0.00 0.00 87 1019.7
20260507164526 53 360 4.0 8.0 0.00 0.00 0.00 87 1019.5
20260507163052 53 360 2.0 8.0 0.00 0.00 0.00 87 1019.6
20260507161602 53 360 5.0 11.0 0.00 0.00 0.00 87 1019.6
20260507160023 53 360 3.0 8.0 0.00 0.00 0.00 88 1019.7
20260507154548 53 360 4.0 8.0 0.00 0.00 0.00 88 1019.6
20260507153017 52 360 4.0 9.0 0.00 0.00 0.00 89 1019.8
20260507151539 52 360 0.0 1.0 0.00 0.00 0.00 89 1019.7
20260507150003 52 360 0.0 0.0 0.00 0.00 0.00 89 1019.6
20260507144530 52 49 0.0 0.0 0.00 0.00 0.00 90 1019.7
20260507143113 52 360 0.0 0.0 0.00 0.00 0.00 90 1019.7
20260507141523 52 360 0.0 0.0 0.00 0.00 0.00 90 1019.5
20260507140109 51 360 0.0 0.0 0.00 0.00 0.00 90 1019.4
20260507134513 51 360 0.0 0.0 0.00 0.00 0.00 90 1019.3
20260507133042 51 360 0.0 0.0 0.00 0.00 0.00 90 1019.3
20260507131505 51 360 0.0 4.0 0.00 0.00 0.00 90 1019.2
20260507130034 51 360 0.0 5.0 0.00 0.00 0.00 90 1019.3
20260507124605 51 360 0.0 4.0 0.00 0.00 0.00 90 1019.3
20260507123035 51 360 1.0 4.0 0.00 0.00 0.00 90 1019.4
20260507121558 52 360 0.0 8.0 0.00 0.00 0.00 90 1019.5
20260507120029 52 360 2.0 6.0 0.00 0.00 0.00 89 1019.6
20260507114548 52 19 3.0 6.0 0.00 0.00 0.00 89 1019.8
20260507113028 52 360 3.0 9.0 0.00 0.00 0.00 89 1019.8
20260507111541 52 360 1.0 5.0 0.00 0.00 0.00 89 1019.9
20260507110002 52 360 3.0 9.0 0.00 0.00 0.00 89 1019.9
20260507104528 52 78 1.0 5.0 0.00 0.00 0.00 89 1020.0
20260507103056 52 360 0.0 3.0 0.00 0.00 0.00 88 1020.0
20260507101523 52 360 2.0 6.0 0.00 0.00 0.00 88 1020.2
20260507100042 52 40 2.0 11.0 0.00 0.00 0.00 89 1020.2
20260507094620 52 360 3.0 9.0 0.00 0.00 0.00 89 1020.4
20260507093024 52 360 0.0 9.0 0.00 0.00 0.00 89 1020.5
20260507091550 52 360 4.0 9.0 0.00 0.00 0.00 89 1020.7
20260507090012 52 360 0.0 9.0 0.00 0.00 0.00 90 1020.8
20260507084552 52 360 0.0 1.0 0.00 0.00 0.00 89 1021.0
20260507083014 52 360 0.0 1.0 0.00 0.00 0.00 89 1021.2
20260507081532 52 360 0.0 5.0 0.00 0.00 0.00 89 1021.1
20260507074519 52 360 1.0 5.0 0.00 0.00 0.00 89 1021.2
20260507073032 52 360 0.0 9.0 0.00 0.00 0.00 89 1021.3
20260507071559 52 360 4.0 8.0 0.00 0.00 0.00 90 1021.3
20260507070023 52 48 0.0 0.0 0.00 0.00 0.00 90 1021.3
20260507064549 52 360 0.0 6.0 0.00 0.00 0.00 90 1021.4
20260507063014 52 360 1.0 4.0 0.00 0.00 0.00 90 1021.5
20260507061541 52 360 0.0 5.0 0.00 0.00 0.00 90 1021.6
20260507060001 52 360 2.0 8.0 0.00 0.00 0.00 90 1021.6
20260507054538 52 53 2.0 4.0 0.00 0.00 0.00 90 1021.6
20260507053058 53 35 0.0 1.0 0.00 0.00 0.00 90 1021.6
20260507051521 53 360 2.0 8.0 0.00 0.00 0.00 89 1021.7
20260507050104 53 17 0.0 5.0 0.00 0.00 0.00 89 1021.7
20260507044504 53 360 2.0 6.0 0.00 0.00 0.00 89 1021.7
20260507043145 53 360 1.0 5.0 0.00 0.00 0.00 89 1021.7
20260507041544 53 360 0.0 4.0 0.00 0.00 0.00 89 1021.6
20260507040056 53 360 0.0 1.0 0.00 0.00 0.00 89 1021.5
20260507034516 53 360 2.0 5.0 0.00 0.00 0.00 89 1021.4
20260507033036 53 360 4.0 9.0 0.00 0.00 0.00 89 1021.5
20260507031556 53 360 3.0 8.0 0.00 0.00 0.00 89 1021.4
20260507030020 54 360 2.0 8.0 0.00 0.00 0.00 88 1021.4
20260507024549 54 360 4.0 8.0 0.00 0.00 0.00 88 1021.6
20260507023013 54 360 4.0 10.0 0.00 0.00 0.00 87 1021.5
20260507021553 54 38 3.0 9.0 0.00 0.00 0.00 87 1021.4
20260507020003 54 360 2.0 10.0 0.00 0.00 0.00 87 1021.6
20260507014530 54 360 3.0 10.0 0.00 0.00 0.00 87 1021.8
20260507013057 54 360 2.0 8.0 0.00 0.00 0.00 87 1022.0
20260507011528 54 360 4.0 9.0 0.00 0.00 0.00 87 1021.9
20260507010040 55 360 2.0 10.0 0.00 0.00 0.00 86 1022.1
20260507004559 55 360 6.0 11.0 0.00 0.00 0.00 86 1022.1
20260507003022 55 360 1.0 9.0 0.00 0.00 0.00 86 1022.1
20260507001550 55 360 5.0 11.0 0.00 0.00 0.00 86 1022.1
20260506234528 56 360 1.0 9.0 0.00 0.00 0.00 87 1022.2
20260506233056 55 360 4.0 8.0 0.00 0.00 0.00 86 1022.1
20260506231523 56 360 3.0 10.0 0.00 0.00 0.00 86 1022.2
20260506230029 56 360 4.0 10.0 0.00 0.00 0.00 86 1022.2
20260506224556 56 360 5.0 9.0 0.00 0.00 0.00 87 1022.3
20260506223018 56 360 2.0 10.0 0.00 0.00 0.00 87 1022.5
20260506221546 56 360 3.0 10.0 0.00 0.00 0.00 86 1022.4
20260506220101 56 360 4.0 10.0 0.00 0.00 0.00 87 1022.4
20260506214523 56 315 4.0 8.0 0.00 0.00 0.00 86 1022.5
20260506213035 56 360 4.0 11.0 0.00 0.00 0.00 86 1022.5
20260506211601 57 360 4.0 8.0 0.00 0.00 0.00 88 1022.5
20260506210033 56 273 3.0 10.0 0.00 0.00 0.00 89 1022.5
20260506204559 56 360 4.0 9.0 0.00 0.00 0.00 90 1022.6
20260506203024 55 360 3.0 9.0 0.00 0.00 0.00 91 1022.7
20260506201545 55 360 4.0 8.0 0.00 0.00 0.00 91 1022.5
20260506200007 55 360 3.0 8.0 0.00 0.00 0.00 92 1022.4
20260506194542 55 360 4.0 9.0 0.00 0.00 0.00 92 1022.5